"read_dt","SO2 (ppb)","flags","PMT voltage (V)","lamp voltage (V)","lamp intensity (Hz)","internal temp (C)","react chamber temp (C)","sample flow (l/min)","pres (mmHg)","SO2 bkg (ppb)","SO2 coefficient"
2014-04-12 00:00:00,3272E-2,5C000400,-0724,1021,10122,027.1,045.3,0.150,742.7,01.18,0.508
2014-04-12 00:01:00,3252E-2,5C000400,-0724,1019,10349,027.1,045.3,0.150,742.7,01.18,0.508
2014-04-12 00:02:00,3292E-2,5C000400,-0724,1019,10136,027.1,045.3,0.150,742.8,01.18,0.508
2014-04-12 00:03:00,3265E-2,5C000400,-0724,1019,10224,027.1,045.3,0.150,742.9,01.18,0.508
2014-04-12 00:04:00,3196E-2,5C000400,-0724,1019,10329,027.1,045.3,0.150,742.9,01.18,0.508
2014-04-12 00:05:00,3227E-2,5C000400,-0724,1019,10394,027.1,045.3,0.150,742.9,01.18,0.508
2014-04-12 00:06:00,3254E-2,5C000400,-0724,1019,10283,027.1,045.3,0.150,742.9,01.18,0.508
2014-04-12 00:07:00,3266E-2,5C000400,-0724,1020,10268,027.1,045.3,0.150,743.0,01.18,0.508
2014-04-12 00:08:00,3256E-2,5C000400,-0724,1021,10113,027.1,045.3,0.150,743.0,01.18,0.508
2014-04-12 00:09:00,3221E-2,5C000400,-0724,1021,10306,027.1,045.3,0.150,743.1,01.18,0.508
2014-04-12 00:10:00,3255E-2,5C000400,-0724,1020,10381,027.1,045.3,0.150,743.1,01.18,0.508
2014-04-12 00:11:00,3219E-2,5C000400,-0724,1020,10163,027.1,045.3,0.150,743.1,01.18,0.508
2014-04-12 00:12:00,3248E-2,5C000400,-0724,1020,10216,027.1,045.3,0.150,743.1,01.18,0.508
2014-04-12 00:13:00,3264E-2,5C000400,-0724,1019,10316,027.1,045.3,0.150,743.2,01.18,0.508
2014-04-12 00:14:00,3231E-2,5C000400,-0724,1019,10266,027.1,045.3,0.150,743.2,01.18,0.508
2014-04-12 00:15:00,3247E-2,5C000400,-0724,1019,10274,027.1,045.3,0.150,743.2,01.18,0.508
2014-04-12 00:16:00,3212E-2,5C000400,-0724,1021,10399,027.1,045.3,0.150,743.1,01.18,0.508
2014-04-12 00:17:00,3204E-2,5C000400,-0724,1020,10294,027.1,045.3,0.150,743.1,01.18,0.508
2014-04-12 00:18:00,3220E-2,5C000400,-0724,1019,10418,027.1,045.3,0.150,743.2,01.18,0.508
2014-04-12 00:19:00,3227E-2,5C000400,-0724,1020,10357,027.1,045.3,0.150,743.2,01.18,0.508
2014-04-12 00:20:00,3226E-2,5C000400,-0724,1020,10283,027.1,045.3,0.150,743.2,01.18,0.508
2014-04-12 00:21:00,3198E-2,5C000400,-0724,1020,10377,027.1,045.3,0.150,743.2,01.18,0.508
2014-04-12 00:22:00,3251E-2,5C000400,-0724,1020,10284,027.1,045.3,0.150,743.1,01.18,0.508
2014-04-12 00:23:00,3212E-2,5C000400,-0724,1020,10394,027.1,045.3,0.150,743.1,01.18,0.508
2014-04-12 00:24:00,3284E-2,5C000400,-0724,1020,10377,027.1,045.3,0.150,743.1,01.18,0.508
2014-04-12 00:25:00,3218E-2,5C000400,-0724,1019,10481,027.1,045.3,0.150,743.1,01.18,0.508
2014-04-12 00:26:00,3224E-2,5C000400,-0724,1019,10214,027.1,045.3,0.150,743.1,01.18,0.508
2014-04-12 00:27:00,3222E-2,5C000400,-0724,1021,10374,027.1,045.3,0.150,743.1,01.18,0.508
2014-04-12 00:28:00,3251E-2,5C000400,-0724,1020,10429,027.1,045.3,0.150,743.2,01.18,0.508
2014-04-12 00:29:00,3208E-2,5C000400,-0724,1020,10375,027.1,045.3,0.150,743.1,01.18,0.508
2014-04-12 00:30:00,3257E-2,5C000400,-0724,1020,10348,027.1,045.3,0.150,743.0,01.18,0.508
2014-04-12 00:31:00,3239E-2,5C000400,-0724,1019,10401,027.1,045.3,0.150,743.1,01.18,0.508
2014-04-12 00:32:00,3234E-2,5C000400,-0724,1020,10304,027.0,045.3,0.150,743.1,01.18,0.508
2014-04-12 00:33:00,3233E-2,5C000400,-0724,1021,10321,027.0,045.3,0.150,743.1,01.18,0.508
2014-04-12 00:34:00,3239E-2,5C000400,-0724,1020,10126,027.1,045.3,0.150,743.1,01.18,0.508
2014-04-12 00:35:00,3193E-2,5C000400,-0724,1021,10340,027.0,045.3,0.150,743.1,01.18,0.508
2014-04-12 00:36:00,3255E-2,5C000400,-0724,1019,10391,027.0,045.3,0.150,743.1,01.18,0.508
2014-04-12 00:37:00,3225E-2,5C000400,-0724,1020,10353,027.0,045.3,0.150,743.2,01.18,0.508
2014-04-12 00:38:00,3207E-2,5C000400,-0724,1019,10121,027.0,045.3,0.150,743.2,01.18,0.508
2014-04-12 00:39:00,3174E-2,5C000400,-0724,1021,10372,027.1,045.3,0.150,743.1,01.18,0.508
2014-04-12 00:40:00,3177E-2,5C000400,-0724,1021,10074,027.0,045.3,0.150,743.2,01.18,0.508
2014-04-12 00:41:00,3224E-2,5C000400,-0724,1020,10274,027.0,045.3,0.150,743.3,01.18,0.508
2014-04-12 00:42:00,3200E-2,5C000400,-0724,1020,10211,027.0,045.3,0.150,743.2,01.18,0.508
2014-04-12 00:43:00,3201E-2,5C000400,-0724,1021,10235,027.0,045.3,0.150,743.3,01.18,0.508
2014-04-12 00:44:00,3232E-2,5C000400,-0724,1021,10313,027.0,045.3,0.150,743.3,01.18,0.508
2014-04-12 00:45:00,3212E-2,5C000400,-0724,1020,10277,027.0,045.3,0.150,743.3,01.18,0.508
2014-04-12 00:46:00,3255E-2,5C000400,-0724,1021,10288,027.0,045.3,0.150,743.4,01.18,0.508
2014-04-12 00:47:00,3244E-2,5C000400,-0724,1022,10435,027.0,045.3,0.150,743.4,01.18,0.508
2014-04-12 00:48:00,3213E-2,5C000400,-0724,1020,10391,027.1,045.3,0.150,743.4,01.18,0.508
2014-04-12 00:49:00,3225E-2,5C000400,-0724,1021,10327,027.0,045.3,0.150,743.4,01.18,0.508
2014-04-12 00:50:00,3214E-2,5C000400,-0724,1021,10239,027.0,045.3,0.150,743.4,01.18,0.508
2014-04-12 00:51:00,3204E-2,5C000400,-0724,1022,10253,027.0,045.3,0.150,743.4,01.18,0.508
2014-04-12 00:52:00,3219E-2,5C000400,-0724,1020,10304,027.0,045.3,0.150,743.5,01.18,0.508
2014-04-12 00:53:00,3228E-2,5C000400,-0724,1021,10221,027.0,045.3,0.150,743.5,01.18,0.508
2014-04-12 00:54:00,3199E-2,5C000400,-0724,1021,10408,027.1,045.3,0.150,743.5,01.18,0.508
2014-04-12 00:55:00,3231E-2,5C000400,-0724,1021,10253,027.0,045.3,0.150,743.5,01.18,0.508
2014-04-12 00:56:00,3225E-2,5C000400,-0724,1020,10398,027.0,045.3,0.150,743.5,01.18,0.508
2014-04-12 00:57:00,3270E-2,5C000400,-0724,1021,10483,027.1,045.3,0.150,743.6,01.18,0.508
2014-04-12 00:58:00,3314E-2,5C000400,-0724,1020,10264,027.1,045.3,0.150,743.6,01.18,0.508
2014-04-12 00:59:00,3289E-2,5C000400,-0724,1020,10268,027.1,045.3,0.150,743.6,01.18,0.508
2014-04-12 01:00:00,3235E-2,5C000400,-0724,1021,10406,027.1,045.3,0.150,743.6,01.18,0.508
2014-04-12 01:01:00,3270E-2,5C000400,-0724,1020,10397,027.1,045.3,0.150,743.6,01.18,0.508
2014-04-12 01:02:00,3291E-2,5C000400,-0724,1021,10352,027.1,045.3,0.150,743.6,01.18,0.508
2014-04-12 01:03:00,3290E-2,5C000400,-0724,1021,10291,027.1,045.3,0.150,743.6,01.18,0.508
2014-04-12 01:04:00,3362E-2,5C000400,-0724,1027,10283,027.1,045.3,0.150,743.6,01.18,0.508
2014-04-12 01:05:00,3339E-2,5C000400,-0724,1026,10377,027.1,045.3,0.150,743.6,01.18,0.508
2014-04-12 01:06:00,3347E-2,5C000400,-0724,1025,10399,027.1,045.3,0.150,743.6,01.18,0.508
2014-04-12 01:07:00,3343E-2,5C000400,-0724,1024,10307,027.1,045.3,0.150,743.7,01.18,0.508
2014-04-12 01:08:00,3287E-2,5C000400,-0724,1023,10385,027.1,045.3,0.150,743.7,01.18,0.508
2014-04-12 01:09:00,3294E-2,5C000400,-0724,1024,10191,027.1,045.3,0.150,743.8,01.18,0.508
2014-04-12 01:10:00,3264E-2,5C000400,-0724,1022,10228,027.1,045.3,0.150,743.9,01.18,0.508
2014-04-12 01:11:00,3257E-2,5C000400,-0724,1023,10416,027.1,045.3,0.150,743.9,01.18,0.508
2014-04-12 01:12:00,3316E-2,5C000400,-0724,1021,10329,027.1,045.3,0.150,743.9,01.18,0.508
2014-04-12 01:13:00,3296E-2,5C000400,-0724,1020,10213,027.1,045.3,0.150,743.9,01.18,0.508
2014-04-12 01:14:00,3319E-2,5C000400,-0724,1020,10412,027.1,045.3,0.150,743.9,01.18,0.508
2014-04-12 01:15:00,3294E-2,5C000400,-0724,1020,10348,027.1,045.3,0.150,743.9,01.18,0.508
2014-04-12 01:16:00,3287E-2,5C000400,-0724,1021,10331,027.1,045.3,0.150,743.9,01.18,0.508
2014-04-12 01:17:00,3292E-2,5C000400,-0724,1018,10350,027.2,045.3,0.150,743.9,01.18,0.508
2014-04-12 01:18:00,3272E-2,5C000400,-0724,1018,10308,027.2,045.3,0.150,743.9,01.18,0.508
2014-04-12 01:19:00,3265E-2,5C000400,-0724,1019,10514,027.2,045.3,0.150,743.9,01.18,0.508
2014-04-12 01:20:00,3345E-2,5C000400,-0724,1018,10483,027.1,045.3,0.150,743.8,01.18,0.508
2014-04-12 01:21:00,3309E-2,5C000400,-0724,1017,10325,027.2,045.3,0.150,743.8,01.18,0.508
2014-04-12 01:22:00,3248E-2,5C000400,-0724,1017,10386,027.1,045.3,0.150,743.8,01.18,0.508
2014-04-12 01:23:00,3294E-2,5C000400,-0724,1016,10435,027.2,045.3,0.150,743.8,01.18,0.508
2014-04-12 01:24:00,3317E-2,5C000400,-0724,1016,10426,027.2,045.3,0.150,743.8,01.18,0.508
2014-04-12 01:25:00,3317E-2,5C000400,-0724,1017,10224,027.2,045.3,0.150,743.8,01.18,0.508
2014-04-12 01:26:00,3289E-2,5C000400,-0724,1016,10478,027.2,045.3,0.150,743.8,01.18,0.508
2014-04-12 01:27:00,3242E-2,5C000400,-0724,1016,10383,027.2,045.3,0.150,743.7,01.18,0.508
2014-04-12 01:28:00,3266E-2,5C000400,-0724,1015,10405,027.2,045.3,0.150,743.8,01.18,0.508
2014-04-12 01:29:00,3307E-2,5C000400,-0724,1016,10350,027.2,045.3,0.150,743.7,01.18,0.508
2014-04-12 01:30:00,3275E-2,5C000400,-0724,1013,10200,027.2,045.3,0.150,743.7,01.18,0.508
2014-04-12 01:31:00,3356E-2,5C000400,-0724,1013,10378,027.2,045.3,0.150,743.7,01.18,0.508
2014-04-12 01:32:00,3351E-2,5C000400,-0724,1014,10522,027.2,045.3,0.150,743.6,01.18,0.508
2014-04-12 01:33:00,3379E-2,5C000400,-0724,1012,10404,027.2,045.3,0.150,743.7,01.18,0.508
2014-04-12 01:34:00,3398E-2,5C000400,-0724,1013,10297,027.2,045.3,0.150,743.7,01.18,0.508
2014-04-12 01:35:00,3310E-2,5C000400,-0724,1013,10415,027.2,045.3,0.150,743.6,01.18,0.508
2014-04-12 01:36:00,3334E-2,5C000400,-0724,1013,10441,027.2,045.3,0.150,743.5,01.18,0.508
2014-04-12 01:37:00,3382E-2,5C000400,-0724,1013,10292,027.2,045.3,0.150,743.6,01.18,0.508
2014-04-12 01:38:00,3360E-2,5C000400,-0724,1012,10432,027.2,045.3,0.150,743.6,01.18,0.508
2014-04-12 01:39:00,3394E-2,5C000400,-0724,1012,10205,027.2,045.3,0.150,743.7,01.18,0.508
2014-04-12 01:40:00,3351E-2,5C000400,-0724,1013,10452,027.2,045.3,0.150,743.6,01.18,0.508
2014-04-12 01:41:00,3384E-2,5C000400,-0724,1012,10469,027.2,045.3,0.150,743.6,01.18,0.508
2014-04-12 01:42:00,3388E-2,5C000400,-0724,1012,10276,027.2,045.3,0.150,743.6,01.18,0.508
2014-04-12 01:43:00,3366E-2,5C000400,-0724,1011,10381,027.2,045.3,0.150,743.6,01.18,0.508
2014-04-12 01:44:00,3378E-2,5C000400,-0724,1012,10390,027.2,045.3,0.150,743.7,01.18,0.508
2014-04-12 01:45:00,3360E-2,5C000400,-0724,1011,10362,027.2,045.3,0.150,743.7,01.18,0.508
2014-04-12 01:46:00,3375E-2,5C000400,-0724,1011,10203,027.2,045.3,0.150,743.6,01.18,0.508
2014-04-12 01:47:00,3345E-2,5C000400,-0724,1011,10496,027.2,045.3,0.150,743.7,01.18,0.508
2014-04-12 01:48:00,3381E-2,5C000400,-0724,1011,10373,027.2,045.3,0.150,743.7,01.18,0.508
2014-04-12 01:49:00,3404E-2,5C000400,-0724,1011,10377,027.2,045.3,0.150,743.7,01.18,0.508
2014-04-12 01:50:00,3362E-2,5C000400,-0724,1010,10412,027.2,045.3,0.150,743.7,01.18,0.508
2014-04-12 01:51:00,3316E-2,5C000400,-0724,1010,10536,027.2,045.3,0.150,743.7,01.18,0.508
2014-04-12 01:52:00,3349E-2,5C000400,-0724,1011,10448,027.2,045.3,0.150,743.7,01.18,0.508
2014-04-12 01:53:00,3327E-2,5C000400,-0724,1011,10354,027.2,045.3,0.150,743.6,01.18,0.508
2014-04-12 01:54:00,3380E-2,5C000400,-0724,1011,10506,027.3,045.3,0.150,743.6,01.18,0.508
2014-04-12 01:55:00,3378E-2,5C000400,-0724,1011,10367,027.2,045.3,0.150,743.6,01.18,0.508
2014-04-12 01:56:00,3395E-2,5C000400,-0724,1010,10462,027.3,045.3,0.150,743.6,01.18,0.508
2014-04-12 01:57:00,3379E-2,5C000400,-0724,1010,10427,027.3,045.3,0.150,743.5,01.18,0.508
2014-04-12 01:58:00,3406E-2,5C000400,-0724,1010,10465,027.2,045.3,0.150,743.6,01.18,0.508
2014-04-12 01:59:00,3437E-2,5C000400,-0724,1011,10393,027.3,045.3,0.150,743.5,01.18,0.508
2014-04-12 02:00:00,3402E-2,5C000400,-0724,1011,10472,027.3,045.3,0.150,743.4,01.18,0.508
2014-04-12 02:01:00,3425E-2,5C000400,-0724,1010,10480,027.3,045.3,0.150,743.4,01.18,0.508
2014-04-12 02:02:00,3388E-2,5C000400,-0724,1010,10522,027.3,045.3,0.150,743.4,01.18,0.508
2014-04-12 02:03:00,3413E-2,5C000400,-0724,1010,10375,027.3,045.3,0.150,743.4,01.18,0.508
2014-04-12 02:04:00,3412E-2,5C000400,-0724,1009,10526,027.3,045.3,0.150,743.4,01.18,0.508
2014-04-12 02:05:00,3388E-2,5C000400,-0724,1010,10501,027.3,045.3,0.150,743.4,01.18,0.508
2014-04-12 02:06:00,3398E-2,5C000400,-0724,1009,10331,027.2,045.3,0.150,743.4,01.18,0.508
2014-04-12 02:07:00,3373E-2,5C000400,-0724,1009,10426,027.3,045.3,0.150,743.4,01.18,0.508
2014-04-12 02:08:00,3363E-2,5C000400,-0724,1008,10356,027.3,045.3,0.150,743.4,01.18,0.508
2014-04-12 02:09:00,3353E-2,5C000400,-0724,1010,10430,027.3,045.3,0.150,743.4,01.18,0.508
2014-04-12 02:10:00,3378E-2,5C000400,-0724,1009,10285,027.3,045.3,0.150,743.4,01.18,0.508
2014-04-12 02:11:00,3355E-2,5C000400,-0724,1009,10458,027.2,045.3,0.150,743.5,01.18,0.508
2014-04-12 02:12:00,3310E-2,5C000400,-0724,1009,10445,027.3,045.3,0.150,743.5,01.18,0.508
2014-04-12 02:13:00,3404E-2,5C000400,-0724,1010,10419,027.2,045.3,0.150,743.5,01.18,0.508
2014-04-12 02:14:00,3420E-2,5C000400,-0724,1009,10354,027.3,045.3,0.150,743.4,01.18,0.508
2014-04-12 02:15:00,3423E-2,5C000400,-0724,1009,10551,027.3,045.3,0.150,743.4,01.18,0.508
2014-04-12 02:16:00,3393E-2,5C000400,-0724,1009,10133,027.2,045.3,0.150,743.5,01.18,0.508
2014-04-12 02:17:00,3385E-2,5C000400,-0724,1009,10259,027.3,045.3,0.150,743.5,01.18,0.508
2014-04-12 02:18:00,3367E-2,5C000400,-0724,1010,10439,027.3,045.3,0.150,743.5,01.18,0.508
2014-04-12 02:19:00,3352E-2,5C000400,-0724,1010,10346,027.2,045.3,0.150,743.5,01.18,0.508
2014-04-12 02:20:00,3411E-2,5C000400,-0724,1011,10415,027.2,045.3,0.150,743.6,01.18,0.508
2014-04-12 02:21:00,3381E-2,5C000400,-0724,1009,10427,027.3,045.3,0.150,743.6,01.18,0.508
2014-04-12 02:22:00,3408E-2,5C000400,-0724,1009,10372,027.3,045.3,0.150,743.7,01.18,0.508
2014-04-12 02:23:00,3422E-2,5C000400,-0724,1009,10432,027.2,045.3,0.150,743.6,01.18,0.508
2014-04-12 02:24:00,3417E-2,5C000400,-0724,1010,10495,027.3,045.3,0.150,743.7,01.18,0.508
2014-04-12 02:25:00,3431E-2,5C000400,-0724,1009,10463,027.3,045.3,0.150,743.7,01.18,0.508
2014-04-12 02:26:00,3436E-2,5C000400,-0724,1010,10418,027.2,045.3,0.150,743.6,01.18,0.508
2014-04-12 02:27:00,3386E-2,5C000400,-0724,1009,10431,027.3,045.3,0.150,743.7,01.18,0.508
2014-04-12 02:28:00,3433E-2,5C000400,-0724,1008,10403,027.2,045.3,0.150,743.7,01.18,0.508
2014-04-12 02:29:00,3470E-2,5C000400,-0724,1009,10451,027.3,045.3,0.150,743.8,01.18,0.508
2014-04-12 02:30:00,3425E-2,5C000400,-0724,1009,10297,027.3,045.3,0.150,743.8,01.18,0.508
2014-04-12 02:31:00,3466E-2,5C000400,-0724,1009,10426,027.3,045.3,0.150,743.8,01.18,0.508
2014-04-12 02:32:00,3425E-2,5C000400,-0724,1010,10476,027.3,045.3,0.150,743.9,01.18,0.508
2014-04-12 02:33:00,3404E-2,5C000400,-0724,1008,10427,027.3,045.3,0.150,744.0,01.18,0.508
2014-04-12 02:34:00,3382E-2,5C000400,-0724,1010,10342,027.3,045.3,0.150,743.9,01.18,0.508
2014-04-12 02:35:00,3440E-2,5C000400,-0724,1009,10453,027.3,045.3,0.150,743.9,01.18,0.508
2014-04-12 02:36:00,3402E-2,5C000400,-0724,1009,10388,027.3,045.3,0.150,743.9,01.18,0.508
2014-04-12 02:37:00,3441E-2,5C000400,-0724,1009,10497,027.3,045.3,0.150,744.0,01.18,0.508
2014-04-12 02:38:00,3422E-2,5C000400,-0724,1009,10501,027.3,045.3,0.150,744.0,01.18,0.508
2014-04-12 02:39:00,3382E-2,5C000400,-0724,1009,10451,027.3,045.3,0.150,744.1,01.18,0.508
2014-04-12 02:40:00,3400E-2,5C000400,-0724,1010,10420,027.3,045.3,0.150,744.0,01.18,0.508
2014-04-12 02:41:00,3406E-2,5C000400,-0724,1010,10463,027.3,045.3,0.149,744.0,01.18,0.508
2014-04-12 02:42:00,3452E-2,5C000400,-0724,1010,10402,027.3,045.3,0.149,744.0,01.18,0.508
2014-04-12 02:43:00,3405E-2,5C000400,-0724,1008,10446,027.3,045.3,0.150,744.0,01.18,0.508
2014-04-12 02:44:00,3460E-2,5C000400,-0724,1009,10403,027.3,045.3,0.149,744.0,01.18,0.508
2014-04-12 02:45:00,3438E-2,5C000400,-0724,1008,10403,027.3,045.3,0.150,743.9,01.18,0.508
2014-04-12 02:46:00,3353E-2,5C000400,-0724,1009,10471,027.4,045.3,0.149,743.9,01.18,0.508
2014-04-12 02:47:00,3434E-2,5C000400,-0724,1009,10510,027.4,045.3,0.150,743.8,01.18,0.508
2014-04-12 02:48:00,3431E-2,5C000400,-0724,1009,10511,027.3,045.3,0.150,743.8,01.18,0.508
2014-04-12 02:49:00,3414E-2,5C000400,-0724,1010,10520,027.3,045.3,0.149,743.8,01.18,0.508
2014-04-12 02:50:00,3390E-2,5C000400,-0724,1009,10543,027.4,045.3,0.149,743.8,01.18,0.508
2014-04-12 02:51:00,3401E-2,5C000400,-0724,1010,10383,027.4,045.3,0.149,743.8,01.18,0.508
2014-04-12 02:52:00,3436E-2,5C000400,-0724,1010,10423,027.4,045.3,0.149,743.7,01.18,0.508
2014-04-12 02:53:00,3428E-2,5C000400,-0724,1010,10488,027.4,045.3,0.149,743.6,01.18,0.508
2014-04-12 02:54:00,3403E-2,5C000400,-0724,1009,10328,027.4,045.3,0.149,743.6,01.18,0.508
2014-04-12 02:55:00,3444E-2,5C000400,-0724,1008,10464,027.4,045.3,0.149,743.7,01.18,0.508
2014-04-12 02:56:00,3450E-2,5C000400,-0724,1009,10389,027.4,045.3,0.149,743.7,01.18,0.508
2014-04-12 02:57:00,3436E-2,5C000400,-0724,1010,10398,027.4,045.3,0.149,743.6,01.18,0.508
2014-04-12 02:58:00,3465E-2,5C000400,-0724,1010,10312,027.4,045.3,0.149,743.6,01.18,0.508
2014-04-12 02:59:00,3428E-2,5C000400,-0724,1011,10401,027.4,045.3,0.149,743.6,01.18,0.508
2014-04-12 03:00:00,3477E-2,5C000400,-0724,1009,10451,027.4,045.3,0.149,743.6,01.18,0.508
2014-04-12 03:01:00,3413E-2,5C000400,-0724,1010,10473,027.4,045.3,0.149,743.5,01.18,0.508
2014-04-12 03:02:00,3448E-2,5C000400,-0724,1011,10513,027.4,045.3,0.149,743.5,01.18,0.508
2014-04-12 03:03:00,3446E-2,5C000400,-0724,1010,10484,027.4,045.3,0.149,743.5,01.18,0.508
2014-04-12 03:04:00,3423E-2,5C000400,-0724,1009,10396,027.4,045.3,0.149,743.5,01.18,0.508
2014-04-12 03:05:00,3492E-2,5C000400,-0724,1010,10390,027.4,045.3,0.149,743.4,01.18,0.508
2014-04-12 03:06:00,3464E-2,5C000400,-0724,1011,10476,027.5,045.3,0.149,743.4,01.18,0.508
2014-04-12 03:07:00,3431E-2,5C000400,-0724,1010,10367,027.4,045.3,0.149,743.4,01.18,0.508
2014-04-12 03:08:00,3467E-2,5C000400,-0724,1010,10387,027.4,045.3,0.149,743.4,01.18,0.508
2014-04-12 03:09:00,3464E-2,5C000400,-0724,1009,10453,027.5,045.3,0.149,743.3,01.18,0.508
2014-04-12 03:10:00,3427E-2,5C000400,-0724,1010,10507,027.5,045.3,0.149,743.4,01.18,0.508
2014-04-12 03:11:00,3471E-2,5C000400,-0724,1009,10390,027.5,045.3,0.149,743.4,01.18,0.508
2014-04-12 03:12:00,3427E-2,5C000400,-0724,1009,10467,027.5,045.3,0.149,743.4,01.18,0.508
2014-04-12 03:13:00,3408E-2,5C000400,-0724,1009,10428,027.5,045.3,0.149,743.5,01.18,0.508
2014-04-12 03:14:00,3428E-2,5C000400,-0724,1010,10423,027.5,045.3,0.149,743.6,01.18,0.508
2014-04-12 03:15:00,3435E-2,5C000400,-0724,1010,10503,027.5,045.3,0.149,743.6,01.18,0.508
2014-04-12 03:16:00,3400E-2,5C000400,-0724,1009,10455,027.5,045.3,0.149,743.7,01.18,0.508
2014-04-12 03:17:00,3394E-2,5C000400,-0724,1010,10569,027.5,045.3,0.149,743.7,01.18,0.508
2014-04-12 03:18:00,3411E-2,5C000400,-0724,1010,10449,027.5,045.3,0.149,743.8,01.18,0.508
2014-04-12 03:19:00,3379E-2,5C000400,-0724,1010,10416,027.5,045.3,0.149,743.8,01.18,0.508
2014-04-12 03:20:00,3421E-2,5C000400,-0724,1010,10593,027.5,045.3,0.149,743.9,01.18,0.508
2014-04-12 03:21:00,3403E-2,5C000400,-0724,1010,10508,027.5,045.3,0.149,743.9,01.18,0.508
2014-04-12 03:22:00,3433E-2,5C000400,-0724,1009,10424,027.5,045.3,0.149,743.9,01.18,0.508
2014-04-12 03:23:00,3403E-2,5C000400,-0724,1008,10307,027.5,045.3,0.149,743.9,01.18,0.508
2014-04-12 03:24:00,3378E-2,5C000400,-0724,1009,10532,027.5,045.3,0.149,743.8,01.18,0.508
2014-04-12 03:25:00,3413E-2,5C000400,-0724,1010,10549,027.6,045.3,0.149,743.8,01.18,0.508
2014-04-12 03:26:00,3403E-2,5C000400,-0724,1010,10470,027.5,045.3,0.149,743.8,01.18,0.508
2014-04-12 03:27:00,3435E-2,5C000400,-0724,1009,10288,027.6,045.3,0.149,743.7,01.18,0.508
2014-04-12 03:28:00,3407E-2,5C000400,-0724,1010,10343,027.5,045.3,0.149,743.7,01.18,0.508
2014-04-12 03:29:00,3420E-2,5C000400,-0724,1009,10188,027.6,045.3,0.149,743.7,01.18,0.508
2014-04-12 03:30:00,3405E-2,5C000400,-0724,1009,10378,027.5,045.3,0.149,743.6,01.18,0.508
2014-04-12 03:31:00,3406E-2,5C000400,-0724,1009,10514,027.6,045.3,0.149,743.5,01.18,0.508
2014-04-12 03:32:00,3398E-2,5C000400,-0724,1010,10530,027.6,045.3,0.149,743.5,01.18,0.508
2014-04-12 03:33:00,3383E-2,5C000400,-0724,1009,10284,027.6,045.3,0.149,743.6,01.18,0.508
2014-04-12 03:34:00,3421E-2,5C000400,-0724,1009,10212,027.6,045.3,0.149,743.7,01.18,0.508
2014-04-12 03:35:00,3400E-2,5C000400,-0724,1010,10490,027.6,045.3,0.149,743.6,01.18,0.508
2014-04-12 03:36:00,3416E-2,5C000400,-0724,1011,10438,027.6,045.3,0.149,743.7,01.18,0.508
2014-04-12 03:37:00,3422E-2,5C000400,-0724,1010,10424,027.6,045.3,0.148,743.8,01.18,0.508
2014-04-12 03:38:00,3367E-2,5C000400,-0724,1009,10487,027.6,045.3,0.149,743.8,01.18,0.508
2014-04-12 03:39:00,3387E-2,5C000400,-0724,1009,10478,027.6,045.3,0.149,743.9,01.18,0.508
2014-04-12 03:40:00,3424E-2,5C000400,-0724,1009,10213,027.6,045.3,0.149,743.8,01.18,0.508
2014-04-12 03:41:00,3420E-2,5C000400,-0724,1010,10315,027.6,045.3,0.148,743.8,01.18,0.508
2014-04-12 03:42:00,3413E-2,5C000400,-0724,1009,10375,027.6,045.3,0.148,743.7,01.18,0.508
2014-04-12 03:43:00,3409E-2,5C000400,-0724,1010,10479,027.6,045.3,0.148,743.8,01.18,0.508
2014-04-12 03:44:00,3436E-2,5C000400,-0724,1009,10430,027.6,045.3,0.148,743.7,01.18,0.508
2014-04-12 03:45:00,3418E-2,5C000400,-0724,1009,10573,027.6,045.3,0.148,743.6,01.18,0.508
2014-04-12 03:46:00,3364E-2,5C000400,-0724,1011,10301,027.6,045.3,0.148,743.7,01.18,0.508
2014-04-12 03:47:00,3363E-2,5C000400,-0724,1009,10319,027.6,045.3,0.148,743.6,01.18,0.508
2014-04-12 03:48:00,3380E-2,5C000400,-0724,1011,10401,027.6,045.3,0.148,743.6,01.18,0.508
2014-04-12 03:49:00,3404E-2,5C000400,-0724,1010,10382,027.6,045.3,0.148,743.6,01.18,0.508
2014-04-12 03:50:00,3429E-2,5C000400,-0724,1011,10503,027.6,045.3,0.148,743.6,01.18,0.508
2014-04-12 03:51:00,3431E-2,5C000400,-0724,1010,10519,027.6,045.3,0.148,743.6,01.18,0.508
2014-04-12 03:52:00,3421E-2,5C000400,-0724,1010,10466,027.6,045.3,0.148,743.6,01.18,0.508
2014-04-12 03:53:00,3402E-2,5C000400,-0724,1010,10540,027.7,045.3,0.148,743.7,01.18,0.508
2014-04-12 03:54:00,3431E-2,5C000400,-0724,1011,10381,027.6,045.3,0.148,743.7,01.18,0.508
2014-04-12 03:55:00,3398E-2,5C000400,-0724,1010,10471,027.7,045.3,0.148,743.7,01.18,0.508
2014-04-12 03:56:00,3448E-2,5C000400,-0724,1011,10485,027.7,045.3,0.148,743.7,01.18,0.508
2014-04-12 03:57:00,3404E-2,5C000400,-0724,1009,10509,027.6,045.3,0.148,743.7,01.18,0.508
2014-04-12 03:58:00,3442E-2,5C000400,-0724,1010,10376,027.7,045.3,0.148,743.7,01.18,0.508
2014-04-12 03:59:00,3432E-2,5C000400,-0724,1010,10256,027.7,045.3,0.148,743.7,01.18,0.508
2014-04-12 04:00:00,3432E-2,5C000400,-0724,1009,10503,027.7,045.3,0.148,743.7,01.18,0.508
2014-04-12 04:01:00,3462E-2,5C000400,-0724,1010,10534,027.7,045.3,0.148,743.6,01.18,0.508
2014-04-12 04:02:00,3393E-2,5C000400,-0724,1010,10386,027.7,045.3,0.148,743.6,01.18,0.508
2014-04-12 04:03:00,3388E-2,5C000400,-0724,1011,10476,027.7,045.3,0.148,743.5,01.18,0.508
2014-04-12 04:04:00,3416E-2,5C000400,-0724,1011,10531,027.7,045.3,0.148,743.5,01.18,0.508
2014-04-12 04:05:00,3414E-2,5C000400,-0724,1011,10255,027.7,045.3,0.148,743.4,01.18,0.508
2014-04-12 04:06:00,3391E-2,5C000400,-0724,1013,10604,027.7,045.3,0.148,743.3,01.18,0.508
2014-04-12 04:07:00,3481E-2,5C000400,-0724,1011,10404,027.7,045.3,0.148,743.3,01.18,0.508
2014-04-12 04:08:00,3440E-2,5C000400,-0724,1011,10326,027.7,045.3,0.148,743.4,01.18,0.508
2014-04-12 04:09:00,3475E-2,5C000400,-0724,1011,10416,027.7,045.3,0.148,743.3,01.18,0.508
2014-04-12 04:10:00,3438E-2,5C000400,-0724,1009,10403,027.7,045.3,0.148,743.4,01.18,0.508
2014-04-12 04:11:00,3448E-2,5C000400,-0724,1010,10321,027.7,045.3,0.148,743.4,01.18,0.508
2014-04-12 04:12:00,3461E-2,5C000400,-0724,1010,10505,027.7,045.3,0.148,743.4,01.18,0.508
2014-04-12 04:13:00,3409E-2,5C000400,-0724,1010,10390,027.7,045.3,0.148,743.4,01.18,0.508
2014-04-12 04:14:00,3415E-2,5C000400,-0724,1009,10522,027.7,045.3,0.148,743.4,01.18,0.508
2014-04-12 04:15:00,3428E-2,5C000400,-0724,1011,10397,027.7,045.3,0.148,743.5,01.18,0.508
2014-04-12 04:16:00,3410E-2,5C000400,-0724,1011,10496,027.7,045.3,0.148,743.5,01.18,0.508
2014-04-12 04:17:00,3415E-2,5C000400,-0724,1010,10273,027.7,045.3,0.148,743.5,01.18,0.508
2014-04-12 04:18:00,3436E-2,5C000400,-0724,1011,10413,027.7,045.3,0.148,743.5,01.18,0.508
2014-04-12 04:19:00,3389E-2,5C000400,-0724,1010,10470,027.7,045.3,0.148,743.5,01.18,0.508
2014-04-12 04:20:00,3396E-2,5C000400,-0724,1011,10428,027.7,045.3,0.148,743.5,01.18,0.508